Weather Roundup
Issued by NWS

Home | Current Version | Previous Version | Text Only | Print | Product List | Glossary On
Versions: 1 2 3 4 5 6 7 8 9 10 11 12 13 14 15 16 17 18 19 20 21 22 23 24 25 26 27 28 29 30 31 32 33 34 35 36 37 38 39 40 41 42 43 44 45 46 47 48 49 50
000
NZUS93 KARX 150310
HRRWXR

CURRENT HOURLY OBSERVATIONS ACROSS
MUCH OF THE UPPER MISSISSIPPI VALLEY
NATIONAL WEATHER SERVICE LA CROSSE WI
1000 PM CDT SUN SEP 14 2014


...SOUTHEAST MINNESOTA...


CITY           SKY/WX    TMP DP  RH WIND       PRES   REMARKS
ROCHESTER      CLOUDY    55  45  68 CALM      30.14S
ROCHESTER/MAYO CLOUDY    58  41  54 NW3       30.14S
WINONA         CLOUDY    55  50  82 N3        30.13R
AUSTIN         CLOUDY    54  46  76 CALM      30.13S
ALBERT LEA     CLOUDY    54  48  82 CALM      30.14S
DODGE CENTER   CLOUDY    55  46  71 NW3       30.14R
PRESTON        CLOUDY    55  51  86 N3        30.14S
OWATONNA       CLOUDY    54  48  82 CALM      30.14S
FARIBAULT      CLOUDY    57  43  58 NW3       30.15R
$$

...ELSEWHERE IN MINNESOTA...


CITY           SKY/WX    TMP DP  RH WIND       PRES   REMARKS
MINNEAPOLIS    CLOUDY    55  43  63 W6        30.14R
INTNL FALLS    CLOUDY    48  45  89 W7        30.07R
DULUTH         PTCLDY    44  39  82 W8        30.09S
RED WING       CLOUDY    55  46  71 CALM      30.12R
REDWOOD FALLS  CLOUDY    51  47  86 W6        30.15S
MANKATO        CLOUDY    54  41  62 N7        30.15R
WORTHINGTON    CLOUDY    52  45  76 N5        30.16S
FAIRMONT       CLOUDY    52  45  76 N3        30.14S
$$

...SOUTHWEST WISCONSIN...


CITY           SKY/WX    TMP DP  RH WIND       PRES   REMARKS
LA CROSSE      CLOUDY    60  52  74 NW6       30.12R
PRAIRIE DU CHI PTCLDY    53  49  88 CALM      30.14R
BOSCOBEL       PTCLDY    53  49  86 SW3       30.15R
LONE ROCK      PTCLDY    57  48  72 E3        30.14S
PLATTEVILLE    PTCLDY    54  49  82 CALM      30.17R
FORT MC COY    CLOUDY    56  52  85 CALM      30.13R
CAMP DOUGLAS   CLOUDY    56  56  99 CALM      30.11S
VIROQUA        FAIR      56  50  81 SW6       30.13S
WIS DELLS      PTCLDY    56  47  69 SW8       30.12S
$$

...ELSEWHERE IN WISCONSIN...


CITY           SKY/WX    TMP DP  RH WIND       PRES   REMARKS
MILWAUKEE      MOCLDY    56  46  69 S6        30.16S
MADISON        MOCLDY    59  47  64 S5        30.15R
GREEN BAY      MOCLDY    56  50  80 W5        30.10R
EAU CLAIRE     CLOUDY    51  43  74 SW3       30.11R
BLACK RVR FLS  LGT RAIN  55  54  97 CALM      30.11R
MEDFORD        CLOUDY    49  43  82 CALM      30.10S
WAUSAU         MOCLDY    54  44  69 NW5       30.08F
WIS RAPIDS     MOCLDY    55  51  86 CALM      30.11S
MARSHFIELD     CLOUDY    53  43  68 NW6       30.10S
RICE LAKE      MOCLDY    49  46  86 CALM      30.12F
$$

...NORTHEAST IOWA...


CITY           SKY/WX    TMP DP  RH WIND       PRES   REMARKS
WATERLOO       PTCLDY    54  49  83 S3        30.13S
DUBUQUE        PTCLDY    51  47  86 S3        30.17R
DECORAH        CLOUDY    57  50  77 S6        30.13S
MASON CITY     MOCLDY    53  51  93 CALM      30.14S
CHARLES CITY   CLOUDY    57  52  82 S6        30.14S
OELWEIN        MOCLDY    54  50  87 S7        30.15S
$$

...ELSEWHERE IN IOWA...


CITY           SKY/WX    TMP DP  RH WIND       PRES   REMARKS
DES MOINES     CLOUDY    63  53  70 S7        30.13S
IOWA CITY      MOCLDY    57  52  83 CALM      30.17S
FORT DODGE     PTCLDY    54  52  94 CALM      30.13F
MARSHALLTOWN   CLOUDY    56  51  84 S5        30.14R
CEDAR RAPIDS   MOCLDY    53  50  89 S3        30.15S
$$

...NORTHERN ILLINOIS...


CITY           SKY/WX    TMP DP  RH WIND       PRES   REMARKS
CHICAGO-OHARE  PTCLDY    53  46  77 SW3       30.17S
DUPAGE         CLEAR     50  47  89 CALM      30.17S
CHICAGO-MIDWAY PTCLDY    60  45  57 SW3       30.18S
MOLINE         MOCLDY    54  50  86 CALM      30.17R
ROCKFORD       MOCLDY    51  47  86 S5        30.20S
STERLING       CLEAR     52  45  76 CALM      30.17S
PEORIA         PTCLDY    54  50  86 CALM      30.18S
$$

NOTE: "FAIR" INDICATES FEW OR NO CLOUDS BELOW 12,000 FEET WITH NO
SIGNIFICANT WEATHER AND/OR OBSTRUCTIONS TO VISIBILITY. WIND
SPEEDS ARE IN MILES-PER-HOUR.



USA.gov is the U.S. government's official web portal to all federal, state and local government web resources and services.